Theta_e
348 349 346 345 344 343 342 341 340 339 340 340 339 340 340 342 344 343 343 343 344 343 343 343 343 343 344 346 346 346 346 344 342 342 343 346 345 343 340 340 338 340
347 347 347 346 345 345 343 341 340 339 339 340 341 340 342 342 342 342 341 341 341 341 341 341 342 343 342 341 343 343 344 342 339 342 340 341 344 345 343 343 343 342
345 344 343 341 339 339 340 341 341 341 341 340 341 342 341 342 342 343 342 341 340 340 340 340 341 341 340 340 340 342 339 341 339 344 345 343 342 342 339 340 342 340
344 345 343 340 340 339 340 340 341 341 341 340 340 341 341 342 342 342 342 342 341 341 340 339 339 339 339 340 341 340 340 340 342 344 338 339 341 344 342 344 343 341
343 344 342 341 340 341 341 340 338 339 340 340 341 342 342 341 341 341 341 341 341 339 338 338 338 338 340 339 339 338 338 337 338 340 340 339 338 337 343 343 341 340
343 343 342 341 341 341 340 340 339 338 339 338 340 341 341 341 341 341 341 340 340 339 338 339 338 338 338 338 338 337 337 335 336 336 335 335 337 340 338 340 339 337
339 341 340 341 341 341 341 341 341 340 339 340 341 341 341 341 341 341 342 341 340 339 339 339 338 338 338 338 338 337 336 337 337 335 335 335 337 338 340 340 340 336
341 342 341 341 341 342 342 341 341 340 340 340 340 341 342 340 341 342 342 342 341 341 340 339 339 340 340 339 337 335 335 335 335 335 335 335 335 335 337 338 340 339
343 341 342 342 341 342 341 339 340 341 341 339 339 339 340 341 340 340 341 342 341 341 340 340 339 339 339 338 336 335 334 334 333 333 332 331 332 333 333 333 335 339
341 341 341 340 339 340 340 340 339 340 342 340 340 340 339 340 341 341 341 340 339 340 339 340 338 338 336 336 337 336 335 334 333 332 332 331 331 332 333 334 335 335
339 340 339 339 340 337 338 337 335 336 340 341 340 339 340 340 340 341 340 340 337 339 340 340 338 336 335 336 336 338 337 334 334 335 334 334 334 334 331 334 333 334
337 338 338 339 339 339 339 339 340 342 342 340 341 339 340 340 341 341 341 340 340 341 342 341 338 337 336 335 335 334 334 334 334 333 333 333 333 334 333 334 333 334
336 336 339 338 340 340 342 341 340 338 337 338 338 338 337 338 340 341 341 341 341 341 341 340 338 337 335 334 335 335 334 332 331 330 330 330 331 331 332 332 335 334
336 338 340 341 340 342 342 343 342 342 342 341 340 338 337 338 339 340 341 341 341 341 341 341 339 336 335 335 336 335 332 330 330 329 329 329 329 330 331 332 334 335
339 340 341 341 341 342 342 342 342 342 342 341 340 340 339 340 341 341 340 340 341 341 340 340 338 335 334 334 332 332 330 328 328 329 329 328 329 329 329 330 332 335
341 342 341 341 341 340 341 341 340 341 340 339 339 339 340 341 342 342 340 339 339 340 339 338 338 335 329 317 319 328 329 327 328 328 329 328 328 326 325 325 329 333
342 341 341 340 340 340 340 340 340 339 339 339 339 340 341 341 341 340 339 339 339 338 338 336 336 335 322 319 321 320 325 328 328 327 327 327 326 324 322 323 323 325
340 341 340 339 339 339 340 340 339 338 338 339 339 340 340 341 340 340 340 340 339 339 338 336 336 328 320 319 320 319 318 327 329 328 326 326 325 324 323 322 322 323
340 339 339 339 339 339 340 339 338 338 338 339 338 339 339 340 340 339 339 340 340 339 337 336 336 328 321 318 319 317 318 323 329 328 326 325 324 323 322 321 321 321
340 339 338 338 339 339 338 338 338 337 338 338 338 339 339 339 340 340 340 340 340 339 338 337 336 326 319 318 316 315 316 322 329 327 326 325 323 322 321 321 321 320
339 339 338 338 339 338 337 337 337 338 338 338 337 337 338 339 339 339 338 338 338 338 339 338 337 323 319 315 313 312 314 320 330 328 327 326 325 323 322 321 321 320
339 339 339 338 338 338 337 336 337 338 337 338 338 338 340 341 341 340 338 337 337 338 338 338 339 322 316 314 313 313 315 330 330 328 327 325 324 324 322 322 322 322
339 338 338 338 337 336 336 335 336 335 336 339 337 337 337 338 339 338 339 337 337 338 339 339 339 330 315 312 313 311 316 332 330 327 326 325 324 324 324 322 321 321
339 338 337 336 337 336 335 335 335 336 337 338 336 335 335 336 337 338 339 339 336 335 334 335 334 330 316 311 311 313 314 330 330 328 326 325 324 324 323 322 322 322
338 338 337 336 336 336 336 334 335 335 336 337 335 335 336 338 338 338 337 337 334 334 334 333 333 329 319 313 312 312 320 333 331 329 326 324 323 322 324 323 322 321
339 338 338 338 337 338 337 336 336 336 335 334 334 334 333 334 337 336 335 333 333 335 332 335 333 334 336 318 313 311 313 327 333 329 326 324 323 323 322 322 322 321
Wind_Speed
1 1 2 3 3 3 4 5 5 6 6 5 5 5 6 6 7 7 7 7 6 6 6 6 7 8 8 8 9 9 8 8 10 10 10 8 10 12 13 14 15 11
1 1 2 2 3 2 3 3 4 5 5 5 5 5 5 5 6 5 6 7 6 6 7 7 7 7 8 8 9 9 8 6 11 7 11 12 11 9 12 13 13 11
1 2 2 3 4 5 4 3 3 4 4 5 5 4 5 4 5 5 5 6 7 7 6 7 7 7 8 8 9 8 8 9 10 10 10 10 11 8 12 13 11 13
1 2 2 2 3 4 4 4 4 4 4 4 5 5 5 5 5 6 5 6 6 7 7 8 8 8 8 8 9 8 9 10 10 9 10 10 11 9 10 9 11 13
2 2 2 2 3 4 4 5 5 5 4 4 5 5 5 5 6 7 6 6 6 7 7 8 9 9 9 8 8 9 9 9 9 9 9 10 10 13 11 11 14 15
3 2 2 3 4 4 4 5 5 6 6 6 5 5 5 6 7 7 8 8 7 8 9 8 9 9 9 9 10 10 10 10 10 11 11 11 11 10 11 11 12 17
3 3 4 4 5 5 5 5 5 5 6 6 5 6 5 6 7 7 8 8 8 9 9 10 10 10 9 9 10 11 11 11 12 13 13 12 12 13 12 12 11 13
5 4 4 5 6 5 5 5 5 5 5 5 7 7 5 6 7 7 7 8 8 9 9 9 10 10 10 9 10 11 11 9 10 12 13 14 14 15 15 11 12 15
4 4 5 6 7 6 5 6 6 5 5 6 6 6 6 6 7 7 8 8 8 8 9 9 9 9 9 9 10 10 10 10 11 12 13 14 14 15 15 15 15 14
4 5 5 6 6 5 6 7 7 6 5 6 6 6 6 7 7 7 8 8 8 9 9 8 9 9 10 10 10 9 10 11 13 13 14 15 15 15 15 14 14 14
5 5 6 6 6 6 7 8 8 7 6 6 6 7 7 7 7 7 7 7 8 9 9 8 9 9 10 11 10 9 10 12 13 13 14 15 15 15 16 16 15 15
6 6 7 7 7 7 7 7 7 7 7 7 6 7 7 7 7 7 6 7 8 9 8 8 8 8 9 10 10 10 11 12 13 15 15 15 16 16 17 16 15 15
7 7 7 7 6 7 6 6 7 7 7 8 7 7 7 7 7 7 7 7 8 8 8 8 7 7 7 8 9 10 11 11 13 14 15 14 15 16 17 17 16 16
8 8 7 6 6 6 6 7 7 7 7 7 7 7 8 7 7 7 7 6 7 7 7 6 6 6 6 7 7 7 8 12 12 13 13 14 15 15 15 16 17 17
8 7 6 6 6 6 7 7 7 7 6 7 7 7 6 7 6 7 7 8 7 6 7 6 5 5 4 5 6 7 9 11 11 12 14 15 15 14 13 14 16 16
8 7 6 6 6 7 7 7 7 7 7 7 8 8 7 6 6 6 7 7 7 6 6 4 4 4 4 8 8 6 9 9 9 11 12 14 14 14 13 13 15 15
6 6 6 6 6 6 6 7 7 6 6 7 7 7 7 7 6 7 7 6 6 6 5 5 4 3 6 7 10 11 9 9 10 11 11 12 14 14 13 14 13 15
7 6 6 7 6 7 7 6 6 6 7 6 6 7 7 6 7 7 7 6 5 5 5 5 5 5 7 7 9 9 9 8 8 9 10 11 13 14 13 14 14 13
7 6 6 7 7 6 5 5 6 6 6 6 6 6 6 7 7 7 7 5 5 5 5 5 7 6 8 8 8 9 10 9 6 8 9 10 13 14 14 13 13 12
6 6 6 7 6 5 5 5 6 6 6 5 5 6 6 6 7 7 6 5 5 5 5 5 7 6 9 8 8 8 9 8 6 7 8 9 13 14 13 14 14 13
7 6 7 6 5 4 4 6 6 6 6 5 4 5 6 6 6 5 5 5 5 5 5 5 5 9 9 7 7 6 9 7 6 6 7 8 10 12 12 13 13 12
7 6 6 5 4 4 5 6 6 5 5 5 5 5 5 6 6 5 4 5 5 5 5 5 4 8 7 5 5 5 9 6 6 6 6 7 9 10 10 11 11 12
6 6 5 5 4 4 5 5 5 6 5 3 5 5 6 6 5 5 4 4 5 4 4 5 6 5 6 5 5 4 5 5 7 7 6 6 7 8 8 8 8 10
6 5 5 5 4 4 5 5 5 4 4 3 4 5 6 6 5 5 5 4 4 5 4 5 7 5 6 6 7 6 5 5 6 7 7 5 6 7 7 8 10 17
5 5 5 5 5 5 4 4 4 4 4 3 4 4 5 5 5 5 5 4 4 4 3 5 6 7 6 8 9 7 5 5 6 6 8 7 6 7 7 7 8 9
4 5 5 5 5 5 4 4 3 3 3 3 4 4 4 4 5 5 6 6 5 4 4 4 5 6 6 8 9 8 7 6 6 7 8 7 6 8 9 8 8 8
Wind_Direction
356 343 326 320 334 348 341 338 335 326 324 323 318 322 324 329 332 336 340 337 333 326 323 313 305 303 301 293 283 282 276 270 268 268 268 255 239 238 240 240 243 239
347 328 314 322 335 353 347 337 326 315 309 307 310 313 317 320 329 328 330 328 326 323 322 323 318 311 307 301 298 290 286 266 263 254 270 257 253 244 245 242 242 243
306 304 320 341 336 333 332 316 296 293 290 302 303 309 313 311 312 315 312 320 321 323 325 325 321 322 315 306 299 292 283 281 274 265 255 257 252 251 254 253 251 242
256 269 296 319 319 317 318 307 297 286 293 299 315 315 307 304 303 300 299 302 312 320 326 329 326 321 318 309 304 298 297 292 286 278 276 278 269 245 247 253 251 254
264 252 252 283 291 291 290 293 295 290 286 293 294 303 300 301 301 297 298 302 308 318 319 323 322 318 313 310 312 306 302 295 289 285 279 269 261 264 257 248 252 255
246 250 261 268 272 272 274 279 288 283 280 279 280 286 285 290 293 293 296 303 305 312 315 309 315 313 313 310 309 309 306 302 296 291 282 277 275 270 265 255 252 256
256 247 254 257 258 255 261 270 279 285 282 285 288 274 274 278 278 284 289 291 296 305 303 311 313 313 311 309 310 310 311 305 303 300 292 284 276 271 265 255 246 247
264 265 271 269 268 264 262 270 280 287 288 284 279 280 274 277 278 279 282 285 292 300 304 307 307 306 310 317 318 319 315 311 306 304 301 295 292 283 275 266 252 247
261 267 267 270 275 278 281 286 284 279 275 276 278 283 280 275 281 284 284 288 291 295 300 301 308 310 313 316 317 314 309 308 308 306 303 298 290 284 279 274 269 256
262 269 270 274 280 283 283 287 285 275 263 264 268 270 273 273 269 276 281 286 290 289 287 294 306 310 311 312 307 305 308 314 313 309 304 298 291 282 279 276 269 263
272 273 273 277 279 283 283 283 285 284 271 263 268 267 265 268 269 266 272 279 287 283 282 294 304 307 311 311 309 307 310 314 311 308 304 297 291 285 279 275 273 268
270 272 274 275 278 279 277 282 281 271 269 265 256 266 267 263 264 271 270 276 280 280 280 290 300 305 310 309 311 321 325 322 320 315 308 303 297 291 286 280 273 269
266 270 272 276 273 273 274 272 271 275 276 278 275 271 273 274 272 272 272 271 277 281 283 293 298 305 310 306 313 322 326 322 321 321 317 310 302 296 295 288 276 271
262 266 268 266 267 269 268 267 270 266 266 269 271 272 271 271 277 280 280 272 272 277 285 289 290 296 303 312 316 318 328 328 322 318 311 306 301 297 295 293 282 271
256 261 259 258 263 267 268 270 270 270 270 271 270 271 273 274 277 277 279 280 277 277 287 288 284 291 292 324 326 324 330 325 315 312 315 318 317 313 310 301 290 278
251 252 257 262 266 267 271 274 277 279 280 279 279 280 281 280 282 279 277 279 288 286 288 285 281 291 296 317 316 313 328 319 310 313 318 324 324 325 322 320 312 293
251 254 257 265 268 271 273 275 279 283 282 282 282 284 287 289 285 287 290 293 289 288 286 277 269 273 294 315 306 321 326 315 317 319 320 326 330 332 329 328 328 328
250 255 261 267 268 269 274 278 283 284 283 284 287 291 293 292 288 287 291 293 288 284 280 277 267 255 268 281 300 313 310 316 314 323 328 329 334 334 335 337 335 333
250 256 261 265 267 273 277 282 281 284 286 289 294 297 293 287 288 292 293 293 284 285 280 279 273 255 255 280 301 301 306 316 308 322 328 333 337 338 338 340 342 336
251 253 258 264 271 276 280 282 281 285 289 290 288 287 280 282 286 289 294 299 294 283 280 275 266 276 284 285 280 283 306 309 313 324 328 333 338 339 340 340 341 338
251 250 254 263 272 276 277 279 282 285 289 290 288 286 284 285 288 293 300 302 304 299 288 275 237 244 261 253 258 294 307 296 308 323 326 325 333 338 339 338 338 337
248 252 256 260 267 273 278 284 287 290 289 294 291 286 281 277 271 266 282 298 304 303 299 287 269 198 223 243 280 296 307 301 318 317 316 319 323 330 335 335 332 333
252 254 259 261 258 266 278 284 291 299 297 301 295 292 290 286 286 286 287 292 299 298 294 291 287 236 221 242 269 284 293 300 319 318 307 308 310 316 320 319 316 324
256 252 255 256 248 259 271 280 285 286 294 295 288 296 292 293 294 291 289 284 284 293 302 301 299 269 225 249 256 253 264 290 307 309 307 301 307 311 315 319 319 321
255 245 246 247 255 261 256 273 284 295 298 289 280 277 279 283 284 283 288 281 276 281 261 266 290 280 238 243 250 245 250 273 291 302 303 301 309 311 307 311 308 309
242 239 240 243 253 257 243 247 263 276 286 289 280 274 288 295 289 287 286 290 292 279 288 270 284 286 267 236 244 246 235 264 282 296 307 305 311 312 310 308 308 316